When you browse on this site, cookies collect data to enhance your experience and personalize the content and advertising you see.
Visit our Privacy Policy to learn more. By continuing to use the site, you agree to this use of cookies and data.
  • In Sweden
  • List of Countries
  • For 7 days
  • Water Temperature
  • Satellite Maps
  • Weather Map
  • Weather Widgets
  • user-avatar
    Login

    Hourly Weather Cheshire

    Today, 19 May, Sunday

    Time Temperature Precipitation Wind Pressure Humidity
    00:00 +13°C° 0 mm 1 mps 757 mmHg 70%
    01:00 +13°C° 0 mm 2 mps 757 mmHg 77%
    02:00 +13°C° 0 mm 2 mps 757 mmHg 78%
    03:00 +13°C° 0 mm 2 mps 757 mmHg 79%
    04:00 +13°C° 0 mm 2 mps 757 mmHg 81%
    05:00 +14°C° 0 mm 2 mps 757 mmHg 76%
    06:00 +16°C° 0 mm 3 mps 757 mmHg 71%
    07:00 +17°C° 0 mm 3 mps 757 mmHg 67%
    08:00 +19°C° 0.1 mm 4 mps 757 mmHg 64%
    09:00 +20°C° 0.1 mm 4 mps 757 mmHg 62%
    10:00 +22°C° 0.1 mm 4 mps 756 mmHg 59%
    11:00 +23°C° 0.1 mm 5 mps 756 mmHg 57%
    12:00 +25°C° 0.1 mm 5 mps 756 mmHg 56%
    13:00 +26°C° 0.1 mm 5 mps 755 mmHg 54%
    14:00 +26°C° 0.1 mm 5 mps 755 mmHg 58%
    15:00 +25°C° 0.1 mm 5 mps 755 mmHg 63%
    16:00 +25°C° 0.1 mm 5 mps 754 mmHg 67%
    17:00 +22°C° 0.5 mm 4 mps 754 mmHg 75%
    18:00 +21°C° 0.5 mm 4 mps 754 mmHg 83%
    19:00 +19°C° 0.5 mm 3 mps 754 mmHg 91%
    20:00 +19°C° 0.5 mm 3 mps 754 mmHg 92%
    21:00 +19°C° 0.5 mm 3 mps 753 mmHg 94%
    22:00 +19°C° 0.5 mm 3 mps 753 mmHg 96%
    23:00 +19°C° 0.6 mm 4 mps 753 mmHg 96%

    Tomorrow, 20 May, Monday

    Time Temperature Precipitation Wind Pressure Humidity
    00:00 +19°C° 0.6 mm 4 mps 752 mmHg 96%
    01:00 +19°C° 0.6 mm 4 mps 752 mmHg 96%
    02:00 +19°C° 0.6 mm 4 mps 752 mmHg 96%
    03:00 +19°C° 0.6 mm 3 mps 752 mmHg 95%
    04:00 +19°C° 0.6 mm 3 mps 752 mmHg 95%
    05:00 +20°C° 0.3 mm 3 mps 751 mmHg 95%
    06:00 +20°C° 0.3 mm 3 mps 751 mmHg 95%
    07:00 +20°C° 0.3 mm 2 mps 751 mmHg 95%
    08:00 +21°C° 0 mm 3 mps 751 mmHg 87%
    09:00 +23°C° 0 mm 4 mps 751 mmHg 79%
    10:00 +25°C° 0 mm 4 mps 750 mmHg 70%
    11:00 +26°C° 0.2 mm 5 mps 750 mmHg 67%
    12:00 +27°C° 0.2 mm 5 mps 749 mmHg 64%
    13:00 +28°C° 0.2 mm 5 mps 749 mmHg 60%
    14:00 +28°C° 0.5 mm 5 mps 749 mmHg 63%
    15:00 +27°C° 0.5 mm 5 mps 748 mmHg 66%
    16:00 +27°C° 0.5 mm 5 mps 748 mmHg 69%
    17:00 +25°C° 0.4 mm 4 mps 748 mmHg 73%
    18:00 +24°C° 0.4 mm 3 mps 748 mmHg 76%
    19:00 +22°C° 0.4 mm 3 mps 748 mmHg 80%
    20:00 +21°C° 0.1 mm 3 mps 748 mmHg 82%
    21:00 +19°C° 0.1 mm 3 mps 749 mmHg 84%
    22:00 +18°C° 0.1 mm 3 mps 749 mmHg 86%
    23:00 +16°C° 0 mm 3 mps 749 mmHg 83%

    Day after tomorrow, 21 May, Tuesday

    Time Temperature Precipitation Wind Pressure Humidity
    00:00 +14°C° 0 mm 3 mps 749 mmHg 81%
    01:00 +12°C° 0 mm 3 mps 749 mmHg 78%
    02:00 +11°C° 0 mm 3 mps 749 mmHg 77%
    03:00 +11°C° 0 mm 3 mps 749 mmHg 75%
    04:00 +10°C° 0 mm 3 mps 749 mmHg 74%
    05:00 +11°C° 0 mm 4 mps 749 mmHg 70%
    06:00 +12°C° 0 mm 5 mps 750 mmHg 65%
    07:00 +13°C° 0 mm 5 mps 750 mmHg 61%
    08:00 +14°C° 0 mm 6 mps 750 mmHg 54%
    09:00 +16°C° 0 mm 6 mps 750 mmHg 48%
    10:00 +17°C° 0 mm 7 mps 750 mmHg 41%
    11:00 +18°C° 0 mm 7 mps 750 mmHg 38%
    12:00 +20°C° 0 mm 7 mps 751 mmHg 36%
    13:00 +21°C° 0 mm 8 mps 751 mmHg 33%
    14:00 +20°C° 0 mm 7 mps 751 mmHg 36%
    15:00 +20°C° 0 mm 7 mps 751 mmHg 38%
    16:00 +18°C° 0 mm 7 mps 751 mmHg 40%
    17:00 +17°C° 0 mm 6 mps 752 mmHg 45%
    18:00 +15°C° 0 mm 5 mps 752 mmHg 50%
    19:00 +14°C° 0 mm 4 mps 753 mmHg 55%
    20:00 +13°C° 0 mm 3 mps 754 mmHg 57%
    21:00 +13°C° 0 mm 3 mps 754 mmHg 60%
    22:00 +12°C° 0 mm 3 mps 755 mmHg 62%
    23:00 +12°C° 0 mm 3 mps 755 mmHg 62%

    22 May, Wednesday

    Time Temperature Precipitation Wind Pressure Humidity
    00:00 +11°C° 0 mm 3 mps 755 mmHg 63%
    01:00 +11°C° 0 mm 3 mps 755 mmHg 64%
    02:00 +11°C° 0 mm 4 mps 755 mmHg 63%
    03:00 +10°C° 0 mm 4 mps 755 mmHg 63%
    04:00 +10°C° 0 mm 4 mps 755 mmHg 62%
    05:00 +10°C° 0 mm 5 mps 755 mmHg 59%
    06:00 +11°C° 0 mm 6 mps 756 mmHg 55%
    07:00 +13°C° 0 mm 6 mps 757 mmHg 52%
    08:00 +14°C° 0 mm 6 mps 757 mmHg 49%
    09:00 +16°C° 0 mm 5 mps 757 mmHg 45%
    10:00 +17°C° 0 mm 5 mps 757 mmHg 41%
    11:00 +19°C° 0 mm 5 mps 757 mmHg 40%
    12:00 +20°C° 0 mm 4 mps 757 mmHg 38%
    13:00 +21°C° 0 mm 4 mps 757 mmHg 37%
    14:00 +22°C° 0 mm 4 mps 757 mmHg 37%
    15:00 +22°C° 0 mm 3 mps 758 mmHg 38%
    16:00 +22°C° 0 mm 3 mps 758 mmHg 38%
    17:00 +20°C° 0 mm 2 mps 758 mmHg 45%
    18:00 +19°C° 0 mm 2 mps 759 mmHg 52%
    19:00 +18°C° 0 mm 1 mps 759 mmHg 59%
    20:00 +15°C° 0 mm 2 mps 759 mmHg 64%
    21:00 +14°C° 0 mm 2 mps 760 mmHg 69%
    22:00 +13°C° 0 mm 2 mps 760 mmHg 75%
    23:00 +12°C° 0 mm 2 mps 760 mmHg 78%

    23 May, Thursday

    Time Temperature Precipitation Wind Pressure Humidity
    00:00 +11°C° 0 mm 1 mps 760 mmHg 82%
    01:00 +11°C° 0 mm 1 mps 761 mmHg 85%
    02:00 +11°C° 0 mm 1 mps 761 mmHg 84%
    03:00 +12°C° 0 mm 1 mps 760 mmHg 82%
    04:00 +12°C° 0 mm 1 mps 760 mmHg 81%
    05:00 +13°C° 0 mm 1 mps 760 mmHg 78%
    06:00 +14°C° 0 mm 1 mps 760 mmHg 74%
    07:00 +15°C° 0 mm 2 mps 761 mmHg 71%
    08:00 +16°C° 0 mm 2 mps 760 mmHg 69%
    09:00 +17°C° 0 mm 2 mps 760 mmHg 68%
    10:00 +17°C° 0 mm 2 mps 760 mmHg 66%
    11:00 +19°C° 0 mm 3 mps 759 mmHg 62%
    12:00 +21°C° 0 mm 4 mps 758 mmHg 57%
    13:00 +22°C° 0 mm 4 mps 757 mmHg 52%
    14:00 +22°C° 0 mm 4 mps 757 mmHg 55%
    15:00 +21°C° 0 mm 4 mps 756 mmHg 57%
    16:00 +20°C° 0 mm 4 mps 756 mmHg 59%
    17:00 +19°C° 0 mm 4 mps 756 mmHg 65%
    18:00 +18°C° 0 mm 3 mps 755 mmHg 72%
    19:00 +17°C° 0 mm 3 mps 755 mmHg 78%
    20:00 +16°C° 0.5 mm 2 mps 754 mmHg 84%
    21:00 +16°C° 0.5 mm 2 mps 754 mmHg 89%
    22:00 +15°C° 0.5 mm 2 mps 753 mmHg 94%
    23:00 +16°C° 0 mm 2 mps 753 mmHg 95%

    24 May, Friday

    Time Temperature Precipitation Wind Pressure Humidity
    00:00 +16°C° 0 mm 2 mps 752 mmHg 96%
    01:00 +16°C° 0 mm 2 mps 752 mmHg 97%
    02:00 +16°C° 0 mm 2 mps 752 mmHg 97%
    03:00 +16°C° 0 mm 2 mps 752 mmHg 97%
    04:00 +16°C° 0 mm 2 mps 752 mmHg 96%
    05:00 +17°C° 0 mm 3 mps 753 mmHg 92%
    06:00 +17°C° 0 mm 4 mps 753 mmHg 88%
    07:00 +17°C° 0 mm 5 mps 754 mmHg 84%
    08:00 +19°C° 0 mm 5 mps 755 mmHg 75%
    09:00 +20°C° 0 mm 6 mps 755 mmHg 66%
    10:00 +21°C° 0 mm 6 mps 756 mmHg 56%
    11:00 +20°C° 0 mm 6 mps 756 mmHg 57%
    12:00 +20°C° 0 mm 5 mps 757 mmHg 57%
    13:00 +19°C° 0 mm 5 mps 758 mmHg 58%
    14:00 +19°C° 0 mm 4 mps 758 mmHg 57%
    15:00 +19°C° 0 mm 4 mps 758 mmHg 57%
    16:00 +19°C° 0 mm 3 mps 759 mmHg 56%
    17:00 +18°C° 0 mm 3 mps 759 mmHg 61%
    18:00 +16°C° 0 mm 2 mps 759 mmHg 66%
    19:00 +15°C° 0 mm 2 mps 760 mmHg 71%
    20:00 +14°C° 0 mm 2 mps 760 mmHg 75%
    21:00 +13°C° 0 mm 2 mps 760 mmHg 79%
    22:00 +12°C° 0 mm 2 mps 760 mmHg 83%
    23:00 +10°C° 0 mm 2 mps 760 mmHg 83%
    Show more